User: anonymous   Login
Location: Skalnate Pleso
(49.1889°N, 20.2450°E)
Time: 20:42:54
(UTC+01:00)
Language:

Cosmos 1805 Rocket - Orbit

View from above orbital plane
View from above orbital plane
View from above satellite
View from above satellite

Ground track
Ground track

The orbit data is extracted from the following two-line orbital elements,

1 17192U 86097B   20023.59154394 +.00000072 +00000-0 +58726-5 0  9999
2 17192 082.5057 084.4410 0016363 203.6795 314.3076 14.83595369768492
Epoch (UTC): 23 January 2020 14:11:49
Eccentricity: 0.0016363
inclination: 82.5057°
perigee height: 606 km
apogee height: 629 km
right ascension of ascending node: 84.4410°
argument of perigee: 203.6795°
revolutions per day: 14.83595369
mean anomaly at epoch: 314.3076°
orbit number at epoch: 76849

The dashed part of the orbit path shows where the satellite is in the earth's shadow,  

DLR